This demonstration page uses our WeatherBlox Daily Observations layout. Learn more.

Left ArrowRight Arrow

Hourly Observations for September 28, 2022

Temp ( °F °C ) Dew Point ( °F °C ) Humidity (%) Winds ( mph kmh ) Pressure ( in mb ) Visibility ( mi km ) Precip ( " mm )
12:15 am 00:15 Clear 56 13.5 42 5.5 58 58 E 13 20 30.28 1025 10 16 0.00 0.00
12:35 am 00:35 Clear 56 13.5 42 5.5 58 58 E 10 17 30.29 1026 7 11 0.00 0.00
12:55 am 00:55 Hazy 56 13.1 42 5.5 60 60 E 10 17 30.29 1026 2 3 0.00 0.00
1:15 am 01:15 Hazy 54 12.1 42 5.8 65 65 E 10 17 30.30 1026 1 2 0.00 0.00
1:35 am 01:35 Hazy 53 11.5 43 5.9 68 68 E 8 13 30.32 1027 2 3 0.00 0.00
1:55 am 01:55 Hazy 51 10.6 43 6 73 73 E 7 11 30.33 1027 2 3 0.00 0.00
2:15 am 02:15 Hazy 50 10.2 43 6 75 75 E 8 13 30.33 1027 2 3 0.00 0.00
2:35 am 02:35 Hazy 50 10.1 43 6 76 76 E 7 11 30.34 1027 1 2 0.00 0.00
2:55 am 02:55 Hazy 50 9.8 43 6 77 77 E 8 13 30.34 1028 2 3 0.00 0.00
3:15 am 03:15 Hazy 50 10.1 43 6 76 76 E 8 13 30.34 1027 2 2 0.00 0.00
3:35 am 03:35 Hazy 48 8.7 42 5.8 82 82 E 7 11 30.35 1028 1 2 0.00 0.00
3:55 am 03:55 Hazy 48 9 42 5.7 80 80 E 7 11 30.35 1028 1 2 0.00 0.00
4:15 am 04:15 Hazy 47 8.2 42 5.6 84 84 ESE 6 9 30.36 1028 1 2 0.00 0.00
4:35 am 04:35 Hazy 47 8.1 42 5.5 84 84 E 8 13 30.36 1028 1 2 0.00 0.00
4:55 am 04:55 Hazy 47 8.1 42 5.5 84 84 E 6 9 30.36 1028 2 2 0.00 0.00
5:15 am 05:15 Hazy 47 8.1 42 5.6 84 84 E 6 9 30.37 1028 4 6 0.00 0.00
5:35 am 05:35 Hazy 47 8.1 42 5.6 84 84 E 7 11 30.36 1028 2 3 0.00 0.00
5:55 am 05:55 Clear with Mist and Fog 46 8 42 5.5 84 84 E 8 13 30.37 1029 5 8 0.00 0.00
6:15 am 06:15 Clear with Mist and Fog 46 7.7 42 5.5 86 86 E 5 7 30.38 1029 3 5 0.00 0.00
6:35 am 06:35 Mostly Clear with Mist and Fog 45 7.4 41 5.2 86 86 E 5 7 30.38 1029 1 2 0.00 0.00
6:55 am 06:55 Mostly Clear with Mist and Fog 45 7.2 41 5.2 87 87 ESE 3 6 30.39 1029 1 2 0.00 0.00
7:15 am 07:15 Clear 44 6.6 41 4.9 89 89 Calm 30.40 1030 10 16 0.00 0.00
7:35 am 07:35 Sunny 44 6.5 41 4.9 89 89 E 6 9 30.40 1030 10 16 0.00 0.00
7:55 am 07:55 Sunny 45 7 41 5.2 88 88 E 7 11 30.40 1029 10 16 0.00 0.00
8:15 am 08:15 Sunny 47 8.2 42 5.6 84 84 ESE 5 7 30.40 1029 10 16 0.00 0.00
8:35 am 08:35 Sunny 48 8.9 43 5.9 81 81 ESE 6 9 30.39 1029 10 16 0.00 0.00
8:55 am 08:55 Sunny 50 10.2 43 6.2 76 76 ESE 9 15 30.38 1029 10 16 0.00 0.00
9:15 am 09:15 Sunny 52 11.3 43 6.3 71 71 SE 9 15 30.38 1029 10 16 0.00 0.00
9:35 am 09:35 Sunny 54 12.4 44 6.4 67 67 SE 10 17 30.37 1028 10 16 0.00 0.00
9:55 am 09:55 Sunny 57 13.9 43 6.2 60 60 SE 12 19 30.36 1028 10 16 0.00 0.00
10:15 am 10:15 Sunny 59 15.2 42 5.5 52 52 SE 13 20 30.35 1028 10 16 0.00 0.00
10:35 am 10:35 Sunny 62 16.5 42 5.4 48 48 SE 15 24 30.34 1028 10 16 0.00 0.00
10:55 am 10:55 Sunny 64 17.6 42 5.4 45 45 SSE 13 20 30.34 1027 10 16 0.00 0.00
11:15 am 11:15 Sunny 65 18.4 41 5 41 41 SSE 16 26 30.33 1027 10 16 0.00 0.00
11:35 am 11:35 Sunny 66 19.1 42 5.4 41 41 SE 14 22 30.32 1027 10 16 0.00 0.00
11:55 am 11:55 Sunny 67 19.5 41 5.2 39 39 SSE 12 19 30.32 1027 10 16 0.00 0.00
12:15 pm 12:15 Sunny 68 20.1 41 5 37 37 SE 15 24 30.31 1026 10 16 0.00 0.00
12:35 pm 12:35 Sunny 69 20.7 42 5.4 37 37 SE 15 24 30.30 1026 10 16 0.00 0.00
12:55 pm 12:55 Sunny 70 21.1 42 5.4 36 36 SE 14 22 30.29 1026 10 16 0.00 0.00
1:15 pm 13:15 Sunny 71 21.9 42 5.6 35 35 SSE 14 22 30.28 1025 10 16 0.00 0.00
1:35 pm 13:35 Sunny 72 22.2 43 5.9 35 35 SSE 14 22 30.27 1025 10 16 0.00 0.00
1:55 pm 13:55 Sunny 72 22.2 42 5.8 34 34 S 10 17 30.26 1025 10 16 0.00 0.00
2:15 pm 14:15 Sunny 73 22.6 43 6 34 34 SE 15 24 30.26 1025 10 16 0.00 0.00
2:35 pm 14:35 Sunny 73 22.8 42 5.8 33 33 SSE 12 19 30.24 1024 10 16 0.00 0.00
2:55 pm 14:55 Sunny 74 23.4 43 6 32 32 SE 14 22 30.23 1024 10 16 0.00 0.00
3:15 pm 15:15 Sunny 74 23.6 43 6.2 33 33 SSE 13 20 30.22 1023 10 16 0.00 0.00
3:35 pm 15:35 Sunny 74 23.6 43 6.3 33 33 SSE 14 22 30.21 1023 10 16 0.00 0.00
3:55 pm 15:55 Sunny 74 23.5 43 6.1 33 33 SSE 14 22 30.20 1023 10 16 0.00 0.00
4:15 pm 16:15 Sunny 74 23.6 43 6.2 33 33 SSE 14 22 30.20 1023 10 16 0.00 0.00
4:35 pm 16:35 Sunny 74 23.5 43 6.2 33 33 SE 15 24 30.19 1022 10 16 0.00 0.00
4:55 pm 16:55 Sunny 74 23.3 43 6.1 33 33 SE 14 22 30.19 1022 10 16 0.00 0.00
5:15 pm 17:15 Sunny 74 23.2 43 6.3 34 34 SSE 14 22 30.18 1022 10 16 0.00 0.00
5:35 pm 17:35 Sunny 73 23 43 6.3 34 34 SE 14 22 30.18 1022 10 16 0.00 0.00
5:55 pm 17:55 Sunny 73 22.6 43 6.3 35 35 SE 13 20 30.18 1022 10 16 0.00 0.00
6:15 pm 18:15 Sunny 72 22.2 44 6.4 36 36 SE 15 24 30.19 1022 10 16 0.00 0.00
6:35 pm 18:35 Sunny 71 21.5 44 6.4 37 37 SE 10 17 30.18 1022 10 16 0.00 0.00
6:55 pm 18:55 Sunny 69 20.6 44 6.5 40 40 SE 10 17 30.19 1022 10 16 0.00 0.00
7:15 pm 19:15 Sunny 67 19.5 44 6.4 42 42 SE 8 13 30.21 1023 10 16 0.00 0.00
7:35 pm 19:35 Clear 65 18.1 44 6.5 47 47 SE 8 13 30.22 1023 10 16 0.00 0.00
7:55 pm 19:55 Clear 62 16.5 44 6.7 52 52 SE 7 11 30.24 1024 10 16 0.00 0.00
8:15 pm 20:15 Clear 59 15.1 44 6.8 58 58 SE 8 13 30.25 1024 10 16 0.00 0.00
8:35 pm 20:35 Clear 59 15.2 44 6.7 57 57 SE 9 15 30.25 1024 10 16 0.00 0.00
8:55 pm 20:55 Clear 59 14.9 44 6.6 58 58 SE 8 13 30.26 1025 10 16 0.00 0.00
9:15 pm 21:15 Clear 57 14 44 6.7 61 61 SE 8 13 30.27 1025 10 16 0.00 0.00
9:35 pm 21:35 Clear 57 14 44 6.5 61 61 SE 9 15 30.28 1025 10 16 0.00 0.00
9:55 pm 21:55 Clear 57 13.7 43 6.3 61 61 SE 9 15 30.28 1025 10 16 0.00 0.00
10:15 pm 22:15 Clear 57 14 42 5.7 57 57 SE 12 19 30.28 1025 10 16 0.00 0.00
10:35 pm 22:35 Clear 56 13.3 42 5.5 59 59 SE 8 13 30.29 1026 10 16 0.00 0.00
10:55 pm 22:55 Clear 55 13 42 5.3 59 59 SE 9 15 30.29 1026 10 16 0.00 0.00
11:15 pm 23:15 Clear 55 12.8 41 5 59 59 SE 9 15 30.29 1026 10 16 0.00 0.00
11:35 pm 23:35 Clear 55 12.5 40 4.7 59 59 SE 9 15 30.29 1026 10 16 0.00 0.00
11:55 pm 23:55 Clear 54 12.3 40 4.6 59 59 SE 9 15 30.29 1026 10 16 0.00 0.00

Powered by AerisWeather